Temperature
18 19 18 18 18 18 17 17 17 17 17 17 17 17 17 17 17 17 17 17 17 16 16 16 16 16 16 16 16 16 16 16 16 16 16 16 16 15 15 15 16 15 15
20 19 18 18 18 18 17 17 17 17 17 16 16 17 17 16 17 17 17 17 16 16 16 16 16 16 16 16 16 16 16 16 15 15 15 15 15 15 15 16 16 15 15
19 19 18 18 18 17 17 17 17 17 16 16 16 16 16 16 16 16 16 16 16 16 16 16 16 16 16 16 16 16 16 15 15 15 15 15 15 15 16 16 16 15 15
18 18 18 18 17 17 17 17 17 17 16 16 16 16 16 16 16 16 16 16 16 16 16 16 16 16 16 16 16 16 15 15 14 14 14 15 15 15 15 15 15 15 15
17 17 18 17 17 17 17 17 17 16 16 16 16 16 16 16 16 16 16 16 16 17 16 16 16 16 16 16 16 16 15 15 14 14 14 15 15 15 15 15 15 15 15
17 17 17 17 17 17 17 17 17 16 16 16 16 16 16 16 16 16 16 16 17 17 17 16 16 16 16 16 16 16 15 15 14 14 14 15 15 15 15 15 15 15 15
17 17 17 17 17 17 16 16 16 16 16 16 16 16 16 16 16 16 16 16 17 17 17 16 16 16 16 16 16 16 15 15 15 14 15 15 15 15 15 15 15 15 15
16 16 17 17 17 17 16 16 16 16 16 16 16 16 16 16 16 16 16 16 16 16 16 16 16 16 16 16 16 16 15 15 14 14 15 15 15 15 15 15 14 14 14
16 16 16 16 16 16 16 16 16 16 16 16 16 16 16 16 16 16 16 16 16 16 16 16 16 16 16 16 16 16 15 15 14 14 14 14 15 15 15 14 14 14 14
16 16 16 16 16 16 16 16 16 16 16 16 16 16 16 16 16 16 16 16 16 16 16 16 16 16 16 16 16 15 15 14 14 14 14 14 14 14 14 14 14 14 14
16 16 16 16 16 16 16 16 16 16 16 16 16 16 16 16 16 16 16 16 16 16 16 16 16 16 16 16 15 15 15 14 14 14 14 14 14 14 14 14 14 14 13
15 15 15 15 15 15 15 15 15 15 15 15 16 15 16 16 16 16 16 16 16 16 16 16 16 16 15 15 15 15 15 14 14 14 14 14 14 14 14 14 14 13 13
15 15 15 15 15 15 15 15 15 15 15 15 15 15 15 15 15 15 15 15 15 16 16 16 15 15 15 15 15 14 14 14 14 14 14 14 14 14 14 14 13 13 13
15 15 15 15 15 15 15 15 15 15 15 15 15 15 15 15 15 15 15 15 15 15 15 15 15 15 15 14 14 14 14 14 14 14 14 14 14 14 14 14 13 13 13
14 14 15 15 15 14 14 15 15 15 15 15 15 14 14 14 15 15 15 15 15 15 15 15 15 14 14 14 14 14 14 14 14 14 14 14 14 13 13 13 13 13 13
14 14 15 15 14 14 14 14 14 14 14 15 15 14 14 14 15 15 15 15 15 15 15 15 14 14 14 14 14 14 14 14 14 14 13 13 13 13 13 13 13 13 12
14 14 14 14 14 14 15 15 14 14 14 14 14 14 14 14 15 15 15 15 15 14 14 14 14 14 14 14 14 14 14 14 14 14 13 13 13 13 13 13 13 12 12
14 14 14 14 14 14 14 14 14 14 14 14 14 14 14 14 14 15 14 15 15 14 14 14 14 14 14 14 14 14 13 14 14 13 13 13 13 13 13 12 12 12 12
13 14 14 14 14 14 14 14 14 14 14 14 14 14 14 14 14 14 14 14 14 14 14 14 14 14 14 13 13 13 13 13 13 13 13 13 13 13 12 12 12 12 12
13 13 13 13 13 13 13 13 14 14 14 14 14 14 14 14 14 14 14 14 14 14 14 14 14 14 13 13 13 13 13 13 13 13 13 13 13 12 12 12 12 12 11
13 13 13 13 13 13 13 13 13 14 14 14 14 14 14 14 14 14 14 14 14 14 14 14 14 13 13 13 13 12 13 13 13 13 13 13 12 12 12 12 11 11 11
13 12 13 13 13 13 13 13 13 13 13 14 14 14 14 14 14 14 14 14 14 14 13 13 13 13 13 13 12 12 12 12 12 12 12 12 12 12 12 11 11 11 10
12 12 12 12 12 12 13 13 13 13 13 13 13 13 13 13 14 14 14 14 14 14 13 13 13 13 13 13 12 12 12 12 12 12 12 12 11 11 11 11 11 10 10
12 12 12 12 12 12 12 12 12 13 13 13 13 13 13 13 13 13 13 13 13 13 13 13 13 13 13 13 12 12 12 12 12 11 11 11 11 11 11 11 10 10 10
11 11 11 12 12 12 12 12 12 12 12 12 12 12 13 13 13 13 13 13 13 13 13 13 13 13 13 13 12 12 12 11 11 11 10 10 10 10 10 10 10 9 9
11 11 11 11 11 11 11 12 12 12 12 12 12 12 12 12 12 12 12 12 12 12 12 12 12 12 12 12 12 12 12 11 11 11 10 10 10 10 9 9 9 9 8
Wind_Speed
13 17 22 20 18 17 16 15 15 15 15 16 16 16 16 16 16 16 17 16 16 16 17 17 17 17 18 18 17 17 17 17 18 18 19 18 18 18 18 18 17 16 18
17 21 22 20 19 17 16 15 15 15 16 16 16 16 16 16 16 17 17 17 16 16 16 17 17 17 17 16 16 16 15 14 15 16 17 18 18 18 18 18 17 15 17
19 21 22 20 19 17 16 16 15 15 15 16 16 17 17 17 17 17 17 16 16 16 16 16 16 16 16 15 14 13 11 9 8 8 10 14 16 16 16 16 16 16 16
18 19 20 20 19 18 17 16 16 16 16 16 16 17 17 17 17 17 16 16 16 16 15 15 15 15 14 14 13 11 8 5 4 6 12 15 14 14 15 15 15 15 15
15 18 20 21 19 18 17 16 16 16 16 16 17 17 17 17 17 17 17 17 16 16 15 14 14 13 13 12 11 9 6 5 7 10 15 15 13 13 14 14 13 13 13
14 17 20 21 19 18 17 16 16 16 16 16 17 17 17 17 17 17 17 17 16 16 15 14 13 12 12 11 9 6 4 5 6 11 14 14 12 12 12 12 12 12 12
13 15 19 20 19 18 17 16 16 16 16 16 17 17 17 17 17 17 17 17 16 15 14 13 12 11 10 9 7 4 4 6 6 10 13 13 11 11 10 10 10 10 10
13 14 17 19 19 18 17 17 16 16 16 16 17 17 17 17 17 17 17 16 15 14 13 12 11 10 9 8 5 2 3 5 5 9 12 11 10 9 9 9 8 9 9
12 12 13 15 16 17 17 17 16 16 16 16 16 17 17 17 17 17 17 16 14 13 12 12 11 9 8 6 3 1 3 5 2 5 9 10 9 8 7 7 6 6 6
11 11 12 14 14 14 15 16 16 16 16 16 16 17 17 17 17 17 16 15 14 13 12 11 10 8 7 5 3 2 3 5 1 6 9 9 8 7 6 5 4 4 4
10 10 11 11 12 14 15 16 16 16 16 16 16 18 17 15 15 15 15 15 14 13 11 10 9 8 7 5 5 5 6 6 3 7 10 9 7 5 4 3 2 2 2
9 9 9 10 10 11 12 14 14 14 15 14 14 16 15 14 14 14 17 16 14 13 11 10 9 8 7 7 8 8 8 6 4 7 9 9 7 4 3 2 1 0 1
9 8 8 9 8 8 8 10 9 11 13 14 16 17 14 13 13 13 13 13 13 12 10 10 10 10 10 9 9 9 7 3 3 6 9 9 7 4 3 3 2 2 1
8 8 8 8 7 8 8 8 8 7 8 9 13 15 11 7 8 10 9 12 12 11 11 11 10 11 11 10 9 8 5 3 2 6 9 10 7 5 4 4 3 3 3
7 7 7 7 7 7 7 6 7 7 7 9 11 12 10 6 6 7 7 10 11 11 10 8 8 7 7 7 7 5 4 5 4 6 8 10 8 6 4 4 3 4 4
6 7 7 7 7 5 6 6 5 6 7 8 8 10 11 9 6 6 5 6 7 9 9 8 7 5 4 4 4 4 3 4 3 5 8 8 8 7 6 4 4 4 4
6 6 7 7 6 6 7 6 5 5 7 6 8 10 11 10 9 6 5 5 6 8 8 6 5 4 2 2 3 2 2 1 1 3 6 7 7 7 6 5 4 3 3
4 5 6 7 6 6 6 5 5 5 5 5 7 8 10 10 10 6 5 4 7 8 5 3 3 2 2 2 2 2 1 1 0 1 4 6 6 6 6 5 3 3 2
4 4 4 4 5 5 5 4 4 4 4 5 6 6 8 10 10 7 5 5 7 5 4 4 3 3 3 3 3 2 2 2 2 1 2 3 5 5 5 6 4 3 2
4 4 4 4 3 4 4 4 3 3 3 3 4 6 8 9 10 8 5 5 6 4 4 4 5 4 3 4 3 2 2 2 2 2 2 3 4 5 5 5 5 4 2
4 4 4 3 2 2 3 4 4 4 4 4 4 7 8 8 9 7 5 6 5 5 6 6 4 5 4 3 2 1 2 2 3 3 2 2 3 4 4 4 4 4 3
4 4 4 3 3 2 2 3 3 4 3 4 4 5 8 8 8 6 6 6 6 5 6 6 5 4 4 4 3 2 2 2 2 3 3 3 3 4 3 3 4 4 4
4 3 3 3 3 3 3 2 3 3 2 3 4 4 5 6 7 7 7 6 6 6 6 6 6 6 5 5 5 4 3 4 1 1 3 3 3 3 3 3 4 4 4
3 3 3 4 3 3 3 3 4 4 4 4 4 4 4 5 6 6 6 6 6 6 6 6 6 5 6 5 4 4 3 2 3 2 1 2 3 3 3 3 4 4 4
3 2 1 2 3 3 4 4 4 4 3 3 4 5 5 5 5 5 5 5 6 5 6 6 6 6 6 6 5 3 3 2 2 3 3 3 1 2 3 3 4 4 4
4 2 1 1 2 2 2 2 3 3 3 3 5 6 5 4 4 5 5 5 6 5 6 6 6 7 6 6 5 4 4 3 3 3 3 3 3 2 2 2 3 4 4
Wind_Direction
136 146 153 153 152 151 149 149 147 146 146 143 140 137 133 130 127 125 122 120 116 112 109 104 100 96 93 91 89 86 86 86 85 83 77 72 69 69 68 68 68 64 66
139 147 152 153 153 152 150 150 148 146 145 144 143 140 137 134 132 130 126 123 119 115 110 105 101 98 95 93 92 91 92 93 93 91 84 75 71 70 69 68 68 68 66
137 145 152 153 152 151 150 148 148 148 149 148 146 143 140 138 135 133 130 127 123 117 112 107 103 100 98 96 95 95 95 92 89 87 86 87 77 73 72 71 69 68 66
136 145 152 152 152 151 150 149 150 152 153 151 148 146 143 141 138 136 132 128 122 117 113 109 106 104 102 100 99 98 93 74 50 48 86 84 79 75 73 72 70 68 65
137 144 148 152 153 152 151 150 151 154 155 152 149 147 145 142 140 136 131 126 121 118 116 112 109 108 107 105 104 101 83 33 29 72 89 87 81 77 73 71 68 67 65
137 138 147 152 153 152 151 151 152 154 154 152 149 147 145 143 140 135 130 126 123 122 121 118 114 112 112 110 109 101 50 9 37 82 89 90 85 81 76 72 69 67 64
135 136 148 152 154 154 153 152 152 153 152 151 151 149 146 144 140 136 131 129 129 128 126 123 120 117 115 115 114 96 19 6 69 86 89 89 87 84 79 74 69 66 63
135 137 147 153 154 154 154 153 153 153 152 152 153 151 148 146 143 140 136 136 136 135 132 130 127 124 121 120 119 92 358 7 75 91 99 99 95 89 83 78 72 66 63
136 140 145 153 155 154 154 153 153 153 152 153 153 151 147 146 147 146 143 143 143 141 138 137 135 132 130 130 136 172 324 344 60 108 107 107 106 98 90 83 77 70 65
141 146 151 155 158 158 154 153 151 150 152 152 150 146 144 147 149 149 149 149 148 147 146 146 145 144 143 148 168 221 278 301 186 112 112 115 114 108 99 90 81 72 68
148 154 158 160 161 163 161 157 151 150 150 148 147 147 149 153 154 157 154 152 151 153 154 154 154 155 158 173 200 228 256 267 162 115 117 125 125 122 115 106 86 75 64
163 164 162 164 165 161 157 155 158 157 156 156 156 159 166 167 164 158 152 154 155 157 160 164 167 172 181 194 213 228 247 243 159 130 134 140 141 142 146 153 155 136 52
173 169 165 161 164 158 151 159 163 161 167 169 169 175 177 163 151 146 151 156 160 165 171 176 182 198 207 201 200 215 235 241 147 137 146 151 157 166 180 192 206 226 258
174 169 164 159 161 162 159 165 162 164 171 168 173 179 170 156 153 156 164 168 172 181 181 182 196 210 211 201 203 209 212 220 178 142 154 163 169 179 197 209 217 238 256
174 174 169 158 159 174 168 167 165 163 170 164 170 179 166 155 160 162 171 173 181 185 180 189 205 206 206 200 206 208 199 204 195 160 161 172 179 184 198 215 234 248 255
183 182 170 163 157 172 173 167 163 163 166 161 166 174 167 164 165 166 172 174 184 183 181 192 205 202 206 193 204 209 215 220 199 163 160 168 177 187 197 212 237 253 256
188 184 180 170 165 175 176 172 167 162 163 163 168 175 171 171 171 170 170 176 179 179 182 195 213 199 196 190 203 221 215 217 132 143 153 165 175 185 195 208 225 244 257
176 172 182 177 178 180 177 166 169 166 164 162 165 173 175 175 174 172 171 180 179 178 178 187 194 178 184 191 211 225 198 151 144 174 148 156 166 174 185 195 201 224 252
148 156 168 156 172 176 173 162 158 154 153 159 162 172 177 176 177 175 176 186 182 176 181 189 187 182 188 200 213 216 199 171 187 185 162 153 149 151 158 170 170 175 196
134 145 146 142 156 172 173 163 155 149 158 162 167 178 184 183 182 179 180 189 183 177 188 192 192 194 191 188 199 210 216 190 191 186 178 143 138 141 143 155 159 151 154
121 133 123 128 150 161 174 174 169 179 178 182 187 186 189 191 187 183 186 190 187 192 197 195 194 194 197 175 153 220 244 218 206 188 162 144 134 132 135 136 141 137 133
131 135 144 157 159 163 184 190 174 170 183 186 187 189 194 194 189 186 188 194 192 196 202 203 196 194 194 177 167 172 216 246 234 184 154 153 147 135 132 125 117 111 102
130 139 153 168 166 184 185 188 165 161 166 179 194 201 202 196 194 191 193 197 199 199 206 205 200 195 199 199 187 176 185 205 175 190 185 167 158 151 143 134 116 104 101
136 155 161 174 174 188 194 195 185 190 195 202 199 203 206 197 197 197 197 200 201 202 203 205 202 202 195 202 205 207 201 162 163 182 208 188 169 171 166 145 125 113 104
114 122 160 169 176 189 189 199 196 205 214 207 194 199 209 209 201 198 195 202 204 205 204 202 202 204 206 205 197 187 200 211 195 178 200 198 192 192 156 139 128 122 108
89 91 93 152 187 191 188 202 203 204 211 208 206 207 210 213 210 203 199 207 206 206 205 207 209 206 210 207 199 186 176 177 195 192 200 189 191 186 137 120 124 122 117
Height
1491 1495 1498 1501 1504 1507 1510 1512 1515 1517 1520 1522 1524 1527 1528 1530 1532 1533 1535 1536 1538 1539 1540 1541 1542 1543 1544 1544 1545 1546 1547 1547 1547 1547 1547 1548 1548 1548 1547 1547 1547 1547 1547
1489 1494 1498 1501 1504 1507 1509 1512 1515 1517 1520 1522 1525 1527 1529 1531 1533 1535 1536 1538 1539 1540 1542 1543 1544 1545 1545 1546 1547 1548 1549 1549 1550 1550 1550 1550 1550 1550 1550 1550 1549 1549 1549
1489 1493 1497 1501 1504 1507 1509 1512 1515 1517 1520 1523 1525 1528 1530 1532 1534 1536 1537 1539 1540 1542 1543 1544 1545 1546 1547 1548 1549 1550 1551 1551 1552 1552 1552 1552 1552 1552 1552 1551 1551 1551 1551
1490 1493 1497 1500 1503 1506 1509 1512 1514 1517 1520 1523 1526 1528 1530 1533 1535 1536 1538 1540 1541 1543 1544 1545 1547 1548 1549 1550 1551 1552 1553 1553 1554 1554 1554 1554 1554 1554 1553 1553 1553 1552 1552
1491 1493 1497 1500 1503 1506 1509 1512 1514 1517 1520 1523 1526 1528 1531 1533 1535 1537 1539 1541 1542 1544 1545 1547 1548 1549 1550 1551 1552 1553 1554 1555 1555 1556 1556 1555 1555 1555 1555 1555 1554 1554 1553
1491 1494 1497 1500 1503 1506 1508 1511 1514 1517 1520 1523 1526 1529 1531 1533 1536 1538 1540 1541 1543 1545 1546 1548 1549 1551 1552 1553 1554 1555 1556 1556 1556 1557 1557 1557 1557 1557 1556 1556 1556 1555 1555
1491 1494 1497 1500 1503 1505 1508 1511 1514 1517 1520 1523 1526 1529 1531 1534 1536 1538 1540 1542 1544 1546 1547 1549 1550 1552 1553 1554 1555 1556 1557 1557 1557 1558 1558 1558 1558 1557 1557 1557 1557 1556 1556
1491 1493 1497 1499 1502 1505 1508 1511 1514 1517 1520 1523 1526 1529 1531 1534 1536 1538 1540 1543 1545 1546 1548 1550 1551 1552 1554 1555 1556 1557 1557 1558 1558 1559 1558 1558 1558 1558 1558 1558 1557 1557 1556
1491 1493 1496 1499 1502 1505 1508 1511 1514 1517 1520 1523 1525 1528 1531 1533 1536 1538 1541 1543 1545 1547 1548 1550 1551 1553 1554 1555 1556 1557 1558 1558 1559 1559 1559 1559 1559 1559 1558 1558 1558 1557 1556
1490 1492 1495 1498 1501 1504 1507 1510 1513 1516 1519 1522 1525 1528 1530 1533 1536 1538 1540 1543 1545 1547 1548 1550 1552 1553 1554 1556 1557 1558 1558 1559 1559 1559 1559 1559 1559 1559 1559 1558 1558 1557 1557
1489 1491 1494 1497 1500 1503 1506 1509 1512 1515 1519 1521 1524 1527 1530 1533 1535 1538 1540 1542 1544 1546 1548 1550 1551 1553 1554 1555 1557 1558 1558 1559 1560 1559 1559 1559 1559 1559 1558 1558 1558 1557 1557
1486 1490 1493 1496 1499 1502 1505 1507 1511 1514 1517 1520 1523 1526 1529 1532 1534 1537 1539 1542 1544 1546 1548 1549 1551 1552 1554 1555 1556 1557 1558 1559 1559 1559 1559 1559 1559 1558 1558 1558 1557 1557 1556
1485 1488 1491 1494 1498 1501 1503 1506 1509 1513 1516 1519 1522 1525 1528 1531 1533 1535 1538 1540 1543 1545 1547 1548 1550 1552 1553 1554 1555 1557 1557 1558 1559 1558 1558 1558 1558 1558 1557 1557 1556 1556 1555
1483 1486 1489 1492 1495 1499 1501 1505 1508 1511 1514 1517 1521 1524 1527 1529 1532 1534 1536 1539 1541 1543 1545 1547 1549 1550 1552 1553 1555 1556 1557 1557 1557 1557 1557 1557 1557 1556 1556 1555 1555 1554 1554
1481 1484 1488 1490 1493 1496 1500 1503 1506 1509 1512 1516 1519 1522 1525 1527 1530 1533 1535 1538 1540 1542 1544 1545 1547 1549 1551 1552 1553 1555 1555 1556 1556 1556 1556 1555 1555 1555 1554 1554 1553 1553 1552
1479 1482 1485 1488 1491 1494 1497 1501 1504 1507 1510 1513 1517 1521 1523 1526 1528 1531 1533 1536 1538 1540 1542 1544 1546 1548 1549 1550 1551 1552 1553 1554 1554 1554 1554 1553 1553 1553 1552 1552 1551 1551 1550
1477 1480 1483 1485 1488 1492 1495 1499 1502 1505 1508 1511 1515 1518 1521 1524 1526 1529 1531 1533 1536 1538 1540 1542 1544 1545 1547 1548 1549 1550 1551 1552 1552 1552 1551 1551 1551 1550 1550 1550 1549 1549 1548
1475 1477 1480 1482 1486 1488 1492 1496 1499 1502 1505 1509 1512 1515 1519 1521 1524 1526 1528 1531 1533 1535 1537 1539 1541 1542 1544 1545 1546 1547 1548 1548 1549 1549 1549 1548 1548 1547 1547 1547 1546 1546 1546
1473 1475 1478 1480 1484 1486 1490 1494 1497 1499 1502 1506 1509 1512 1516 1518 1521 1523 1525 1528 1530 1532 1534 1536 1537 1539 1540 1541 1543 1544 1544 1545 1545 1546 1546 1545 1545 1545 1544 1544 1544 1543 1543
1471 1474 1476 1479 1482 1484 1488 1491 1494 1497 1500 1503 1506 1509 1512 1515 1517 1520 1522 1524 1526 1528 1530 1532 1533 1535 1536 1538 1539 1540 1541 1541 1542 1542 1542 1542 1542 1542 1541 1541 1541 1540 1540
1469 1471 1473 1476 1479 1482 1484 1487 1490 1493 1497 1499 1503 1506 1509 1511 1513 1516 1518 1520 1522 1524 1526 1527 1529 1531 1532 1534 1535 1536 1536 1537 1538 1538 1538 1538 1538 1538 1538 1538 1537 1537 1537
1467 1469 1472 1475 1477 1479 1482 1485 1488 1490 1493 1496 1499 1502 1505 1507 1509 1511 1514 1516 1517 1519 1521 1523 1525 1526 1527 1529 1530 1531 1532 1533 1533 1534 1534 1534 1535 1534 1534 1534 1534 1534 1534
1466 1468 1469 1473 1475 1478 1480 1482 1485 1487 1489 1493 1495 1497 1500 1503 1505 1507 1509 1511 1513 1514 1516 1518 1519 1521 1522 1523 1525 1526 1526 1526 1528 1529 1529 1530 1531 1531 1531 1531 1531 1531 1530
1464 1466 1468 1471 1473 1475 1478 1479 1481 1483 1485 1487 1490 1493 1496 1498 1500 1502 1504 1506 1508 1509 1511 1512 1514 1515 1516 1517 1518 1520 1521 1522 1523 1524 1525 1526 1527 1527 1527 1527 1527 1527 1527
1463 1465 1467 1469 1471 1472 1474 1476 1478 1479 1481 1483 1486 1489 1491 1493 1495 1497 1498 1500 1502 1503 1505 1506 1507 1509 1510 1511 1512 1513 1515 1517 1518 1519 1519 1521 1522 1522 1523 1523 1523 1523 1522
1463 1464 1466 1467 1469 1470 1471 1473 1474 1476 1478 1480 1481 1483 1485 1487 1489 1491 1492 1494 1496 1497 1499 1500 1501 1502 1504 1505 1506 1507 1508 1510 1512 1513 1514 1515 1517 1518 1518 1518 1518 1518 1518